TimeCST,TemperatureF,Dew PointF,Humidity,Sea Level PressureIn,VisibilityMPH,Wind Direction,Wind SpeedMPH,Gust SpeedMPH,PrecipitationIn,Events,Conditions,WindDirDegrees,DateUTC
12:15 AM,71.6,59.0,64,30.10,10.0,SSE,13.8,24.2,N/A,,Clear,160,2012-11-09 06:15:00
12:35 AM,71.6,59.0,64,30.10,10.0,South,19.6,-,N/A,,Clear,170,2012-11-09 06:35:00
12:55 AM,71.6,59.0,64,30.10,10.0,SSE,15.0,25.3,N/A,,Clear,160,2012-11-09 06:55:00
1:15 AM,71.6,59.0,64,30.10,10.0,South,19.6,-,N/A,,Clear,170,2012-11-09 07:15:00
1:35 AM,71.6,59.0,64,30.10,10.0,South,18.4,25.3,N/A,,Clear,180,2012-11-09 07:35:00
1:55 AM,71.6,59.0,64,30.10,10.0,South,19.6,-,N/A,,Clear,180,2012-11-09 07:55:00
2:15 AM,71.6,59.0,64,30.09,10.0,South,20.7,-,N/A,,Clear,180,2012-11-09 08:15:00
2:35 AM,71.6,59.0,64,30.09,10.0,South,20.7,-,N/A,,Clear,180,2012-11-09 08:35:00
2:55 AM,71.6,59.0,64,30.09,10.0,South,19.6,-,N/A,,Clear,180,2012-11-09 08:55:00
3:15 AM,71.6,59.0,64,30.09,10.0,South,19.6,-,N/A,,Clear,180,2012-11-09 09:15:00
3:35 AM,71.6,59.0,64,30.09,10.0,South,19.6,-,N/A,,Clear,180,2012-11-09 09:35:00
3:55 AM,71.6,59.0,64,30.09,10.0,South,20.7,-,N/A,,Clear,180,2012-11-09 09:55:00
4:15 AM,71.6,59.0,64,30.10,10.0,South,20.7,-,N/A,,Clear,180,2012-11-09 10:15:00
4:35 AM,71.6,59.0,64,30.10,10.0,South,17.3,-,N/A,,Clear,180,2012-11-09 10:35:00
4:55 AM,71.6,59.0,64,30.10,10.0,South,17.3,-,N/A,,Clear,180,2012-11-09 10:55:00
5:15 AM,71.6,59.0,64,30.11,10.0,South,18.4,-,N/A,,Clear,180,2012-11-09 11:15:00
5:35 AM,71.6,59.0,64,30.11,10.0,South,17.3,-,N/A,,Clear,170,2012-11-09 11:35:00
5:55 AM,71.6,60.8,69,30.11,10.0,South,17.3,-,N/A,,Clear,170,2012-11-09 11:55:00
6:15 AM,71.6,60.8,69,30.11,10.0,South,13.8,-,N/A,,Clear,170,2012-11-09 12:15:00
6:35 AM,71.6,59.0,64,30.11,10.0,South,16.1,-,N/A,,Clear,170,2012-11-09 12:35:00
6:55 AM,73.4,60.8,65,30.11,10.0,South,15.0,21.9,N/A,,Clear,170,2012-11-09 12:55:00
7:15 AM,73.4,60.8,65,30.11,10.0,SSE,11.5,21.9,N/A,,Clear,160,2012-11-09 13:15:00
7:35 AM,73.4,59.0,61,30.12,10.0,SSE,15.0,-,N/A,,Clear,160,2012-11-09 13:35:00
7:55 AM,73.4,59.0,61,30.13,10.0,SSE,12.7,20.7,N/A,,Clear,160,2012-11-09 13:55:00
8:15 AM,75.2,59.0,57,30.14,10.0,South,13.8,-,N/A,,Clear,170,2012-11-09 14:15:00
8:35 AM,75.2,59.0,57,30.14,10.0,SSE,11.5,19.6,N/A,,Clear,150,2012-11-09 14:35:00
8:55 AM,75.2,59.0,57,30.14,10.0,SSE,10.4,19.6,N/A,,Clear,160,2012-11-09 14:55:00
9:15 AM,75.2,59.0,57,30.14,10.0,SSE,12.7,20.7,N/A,,Clear,160,2012-11-09 15:15:00
9:35 AM,75.2,59.0,57,30.14,10.0,SSE,11.5,21.9,N/A,,Clear,160,2012-11-09 15:35:00
9:55 AM,75.2,59.0,57,30.15,10.0,SSE,12.7,20.7,N/A,,Clear,160,2012-11-09 15:55:00
10:15 AM,75.2,59.0,57,30.15,10.0,SSE,11.5,20.7,N/A,,Clear,160,2012-11-09 16:15:00
10:35 AM,75.2,59.0,57,30.15,10.0,SSE,12.7,18.4,N/A,,Clear,160,2012-11-09 16:35:00
10:55 AM,75.2,60.8,61,30.14,10.0,SSE,13.8,20.7,N/A,,Clear,160,2012-11-09 16:55:00
11:15 AM,75.2,60.8,61,30.14,10.0,SSE,13.8,19.6,N/A,,Clear,160,2012-11-09 17:15:00
11:35 AM,75.2,60.8,61,30.14,10.0,South,11.5,19.6,N/A,,Clear,170,2012-11-09 17:35:00
11:55 AM,77.0,60.8,57,30.13,10.0,SSE,10.4,18.4,N/A,,Clear,160,2012-11-09 17:55:00
12:15 PM,77.0,62.6,61,30.12,10.0,South,10.4,16.1,N/A,,Clear,170,2012-11-09 18:15:00
12:55 PM,77.0,60.8,57,30.10,10.0,South,12.7,-,N/A,,Clear,170,2012-11-09 18:55:00
1:15 PM,77.0,60.8,57,30.09,10.0,South,11.5,17.3,N/A,,Clear,170,2012-11-09 19:15:00
1:35 PM,77.0,62.6,61,30.09,10.0,South,12.7,-,N/A,,Clear,170,2012-11-09 19:35:00
1:55 PM,77.0,62.6,61,30.08,10.0,South,13.8,-,N/A,,Clear,170,2012-11-09 19:55:00
2:15 PM,77.0,60.8,57,30.08,10.0,South,11.5,-,N/A,,Clear,170,2012-11-09 20:15:00
2:35 PM,77.0,62.6,61,30.08,10.0,South,12.7,-,N/A,,Clear,170,2012-11-09 20:35:00
2:55 PM,77.0,62.6,61,30.07,10.0,SSE,8.1,17.3,N/A,,Scattered Clouds,160,2012-11-09 20:55:00
3:15 PM,77.0,62.6,61,30.07,10.0,South,10.4,18.4,N/A,,Scattered Clouds,170,2012-11-09 21:15:00
3:35 PM,77.0,62.6,61,30.07,10.0,South,12.7,-,N/A,,Partly Cloudy,170,2012-11-09 21:35:00
3:55 PM,77.0,62.6,61,30.07,10.0,South,12.7,-,N/A,,Clear,170,2012-11-09 21:55:00
4:15 PM,75.2,62.6,65,30.07,10.0,South,13.8,-,N/A,,Clear,170,2012-11-09 22:15:00
4:35 PM,75.2,62.6,65,30.07,10.0,SSE,8.1,-,N/A,,Clear,160,2012-11-09 22:35:00
4:55 PM,75.2,62.6,65,30.07,10.0,SSE,13.8,-,N/A,,Clear,150,2012-11-09 22:55:00
5:15 PM,75.2,62.6,65,30.07,10.0,SSE,13.8,-,N/A,,Clear,150,2012-11-09 23:15:00
5:35 PM,73.4,62.6,69,30.07,10.0,SSE,17.3,-,N/A,,Clear,150,2012-11-09 23:35:00
5:55 PM,73.4,62.6,69,30.07,10.0,SSE,17.3,-,N/A,,Mostly Cloudy,150,2012-11-09 23:55:00
6:15 PM,73.4,60.8,65,30.08,10.0,SSE,17.3,-,N/A,,Overcast,150,2012-11-10 00:15:00
6:35 PM,73.4,60.8,65,30.08,10.0,SSE,12.7,23.0,N/A,,Overcast,160,2012-11-10 00:35:00
6:55 PM,73.4,60.8,65,30.08,10.0,SSE,15.0,-,N/A,,Overcast,150,2012-11-10 00:55:00
7:15 PM,73.4,60.8,65,30.08,10.0,SSE,12.7,21.9,N/A,,Overcast,160,2012-11-10 01:15:00
7:55 PM,73.4,62.6,69,30.09,10.0,SSE,11.5,20.7,N/A,,Overcast,150,2012-11-10 01:55:00
8:15 PM,73.4,60.8,65,30.09,10.0,SSE,11.5,21.9,N/A,,Overcast,160,2012-11-10 02:15:00
8:35 PM,73.4,62.6,69,30.09,-9999.0,SSE,12.7,21.9,N/A,,Overcast,150,2012-11-10 02:35:00
8:55 PM,73.4,60.8,65,30.09,10.0,South,20.7,-,N/A,,Overcast,170,2012-11-10 02:55:00
9:15 PM,73.4,60.8,65,30.09,10.0,SSE,16.1,24.2,N/A,,Mostly Cloudy,150,2012-11-10 03:15:00
9:35 PM,73.4,60.8,65,30.09,10.0,SSE,11.5,19.6,N/A,,Mostly Cloudy,160,2012-11-10 03:35:00
9:55 PM,73.4,60.8,65,30.09,10.0,SSE,11.5,24.2,N/A,,Mostly Cloudy,160,2012-11-10 03:55:00
10:15 PM,73.4,60.8,65,30.10,10.0,South,16.1,24.2,N/A,,Partly Cloudy,170,2012-11-10 04:15:00
10:35 PM,73.4,60.8,65,30.09,10.0,SSE,16.1,24.2,N/A,,Scattered Clouds,160,2012-11-10 04:35:00
10:55 PM,73.4,60.8,65,30.09,10.0,South,17.3,-,N/A,,Partly Cloudy,170,2012-11-10 04:55:00
11:15 PM,73.4,60.8,65,30.09,10.0,South,19.6,-,N/A,,Clear,170,2012-11-10 05:15:00
11:35 PM,73.4,60.8,65,30.09,10.0,South,18.4,25.3,N/A,,Mostly Cloudy,170,2012-11-10 05:35:00
11:55 PM,73.4,60.8,65,30.08,10.0,South,20.7,-,N/A,,Overcast,170,2012-11-10 05:55:00